User: anonymous   Login
Location: The D'Auria's Ocala Star Observatory
(29.0276°N, 82.1742°W)
Time: 08:13:37
(UTC-04:00)
Language:

Abrixas rocket - Orbit

View from above orbital plane
View from above orbital plane
View from above satellite
View from above satellite

Ground track
Ground track

The orbit data is extracted from the following two-line orbital elements,

1 25723U 99022C   14295.09545071  .00020287  00000-0  62955-3 0  7822
2 25723 048.4241 227.1622 0016579 101.1490 336.8110 15.33141609856611
Epoch (UTC): 22 October 2014 02:17:26
Eccentricity: 0.0016579
inclination: 48.4241°
perigee height: 455 km
apogee height: 478 km
right ascension of ascending node: 227.1622°
argument of perigee: 101.1490°
revolutions per day: 15.33141609
mean anomaly at epoch: 336.8110°
orbit number at epoch: 85661

The dashed part of the orbit path shows where the satellite is in the earth's shadow,  

DLR